Celebrity Equinox — 9HXD9 — position and weather

sailwx.info

Track history (hours):
 
Tides and Currents Weather Stations Pressure Air Temp Water Temp Dewpoint Dewpoint Depression Visibility Wind Speed Wind Dir Waves Ship Positions

Celebrity Equinox

Last reported at 2014-Oct-25 22:14 UTC. Time now 2014-Oct-26 01:17 UTC.
Position N 38°28' E 012°44'.

Length 317 m; draft 9 m.

Type: Ship. MMSI: 249667000.

Date/timePositionNaut miles runAvg speedWind from/ knotsBaromVisibWave heightAir tempDewpointWater temp
2014-Oct-25 22:14N 38°28' E 012°44'1217.9
2014-Oct-25 21:33N 38°27' E 012°60'1818.1
2014-Oct-25 20:33N 38°25' E 013°23'1818.0
2014-Oct-25 19:33N 38°24' E 013°46'1918.3
2014-Oct-25 18:32N 38°21' E 014°09'3718.3
2014-Oct-25 16:31N 38°19' E 014°56'1717.6
2014-Oct-25 15:33N 38°20' E 015°18'1611.6
2014-Oct-25 14:09N 38°14' E 015°38'1014.6
2014-Oct-25 13:27N 38°04' E 015°36'  
2014-Oct-17 23:28N 42°26' E 010°33'2713.2
2014-Oct-17 21:25N 42°43' E 010°04'2912.7
2014-Oct-17 19:08N 43°12' E 010°07'813.3
2014-Oct-17 18:33N 43°19' E 010°09'1212.5
2014-Oct-17 17:33N 43°31' E 010°14'3 3.1
2014-Oct-17 16:30N 43°33' E 010°18'0 0.0
2014-Oct-17 15:30N 43°33' E 010°18'0 0.0
2014-Oct-17 14:32N 43°33' E 010°18'0 0.0
2014-Oct-17 13:29N 43°33' E 010°18'0 0.0
2014-Oct-17 12:31N 43°33' E 010°18'0 0.0
2014-Oct-17 11:31N 43°33' E 010°18'0 0.0
2014-Oct-17 10:34N 43°33' E 010°18'0 0.0
2014-Oct-17 09:33N 43°33' E 010°18'0 0.0
2014-Oct-17 08:30N 43°33' E 010°18'0 0.0
2014-Oct-17 07:29N 43°33' E 010°18'0 0.0
2014-Oct-17 06:32N 43°33' E 010°18'0 0.0
2014-Oct-17 05:28N 43°33' E 010°18'0 0.0
2014-Oct-17 04:33N 43°33' E 010°18'6 6.0
2014-Oct-17 03:33N 43°30' E 010°11'1010.0
2014-Oct-17 02:33N 43°31' E 009°57'1010.4
2014-Oct-17 01:33N 43°32' E 009°43'1111.1
2014-Oct-17 00:33N 43°32' E 009°28'1111.0
2014-Oct-16 23:33N 43°33' E 009°12'1111.0
2014-Oct-16 22:33N 43°34' E 008°57'1110.7
2014-Oct-16 21:33N 43°35' E 008°43'1110.4
2014-Oct-16 20:33N 43°36' E 008°28'1110.2
2014-Oct-16 19:30N 43°37' E 008°13'1111.6
2014-Oct-16 18:33N 43°38' E 007°58'2914.4
2014-Oct-16 16:33N 43°41' E 007°19'0 0.1
2014-Oct-16 15:23N 43°41' E 007°19'0 0.0
2014-Oct-16 14:29N 43°41' E 007°19'0 0.0
2014-Oct-16 13:28N 43°41' E 007°19'0 0.1
2014-Oct-16 12:28N 43°41' E 007°19'0 0.0
2014-Oct-16 11:28N 43°41' E 007°19'0 0.0
2014-Oct-16 10:33N 43°41' E 007°19'0 0.0
2014-Oct-16 09:33N 43°41' E 007°19'0 0.0
2014-Oct-16 08:32N 43°41' E 007°19'0 0.0
2014-Oct-16 07:32N 43°41' E 007°19'0 0.1
2014-Oct-16 06:31N 43°41' E 007°19'0 0.0
2014-Oct-16 05:31N 43°41' E 007°19'3 2.6
2014-Oct-16 04:33N 43°39' E 007°18'10 9.8
2014-Oct-16 03:33N 43°30' E 007°12'10 9.9
2014-Oct-16 02:33N 43°22' E 007°04'10 9.8
2014-Oct-16 01:33N 43°14' E 006°56'10 9.8
2014-Oct-16 00:33N 43°06' E 006°49'9 9.4
2014-Oct-15 23:33N 42°59' E 006°40'  
Track history (hours):
 
Tides and Currents Weather Stations Pressure Air Temp Water Temp Dewpoint Dewpoint Depression Visibility Wind Speed Wind Dir Waves Ship Positions

Celebrity Equinox

Last reported at 2014-Oct-25 22:14 UTC. Time now 2014-Oct-26 01:17 UTC.
Position N 38°28' E 012°44'.

Length 317 m; draft 9 m.

Type: Ship. MMSI: 249667000.

Date/timePositionNaut miles runAvg speedWind from/ knotsBaromVisibWave heightAir tempDewpointWater temp
2014-Oct-25 22:14N 38°28' E 012°44'1217.9
2014-Oct-25 21:33N 38°27' E 012°60'1818.1
2014-Oct-25 20:33N 38°25' E 013°23'1818.0
2014-Oct-25 19:33N 38°24' E 013°46'1918.3
2014-Oct-25 18:32N 38°21' E 014°09'3718.3
2014-Oct-25 16:31N 38°19' E 014°56'1717.6
2014-Oct-25 15:33N 38°20' E 015°18'1611.6
2014-Oct-25 14:09N 38°14' E 015°38'1014.6
2014-Oct-25 13:27N 38°04' E 015°36'  
2014-Oct-17 23:28N 42°26' E 010°33'2713.2
2014-Oct-17 21:25N 42°43' E 010°04'2912.7
2014-Oct-17 19:08N 43°12' E 010°07'813.3
2014-Oct-17 18:33N 43°19' E 010°09'1212.5
2014-Oct-17 17:33N 43°31' E 010°14'3 3.1
2014-Oct-17 16:30N 43°33' E 010°18'0 0.0
2014-Oct-17 15:30N 43°33' E 010°18'0 0.0
2014-Oct-17 14:32N 43°33' E 010°18'0 0.0
2014-Oct-17 13:29N 43°33' E 010°18'0 0.0
2014-Oct-17 12:31N 43°33' E 010°18'0 0.0
2014-Oct-17 11:31N 43°33' E 010°18'0 0.0
2014-Oct-17 10:34N 43°33' E 010°18'0 0.0
2014-Oct-17 09:33N 43°33' E 010°18'0 0.0
2014-Oct-17 08:30N 43°33' E 010°18'0 0.0
2014-Oct-17 07:29N 43°33' E 010°18'0 0.0
2014-Oct-17 06:32N 43°33' E 010°18'0 0.0
2014-Oct-17 05:28N 43°33' E 010°18'0 0.0
2014-Oct-17 04:33N 43°33' E 010°18'6 6.0
2014-Oct-17 03:33N 43°30' E 010°11'1010.0
2014-Oct-17 02:33N 43°31' E 009°57'1010.4
2014-Oct-17 01:33N 43°32' E 009°43'1111.1
2014-Oct-17 00:33N 43°32' E 009°28'1111.0
2014-Oct-16 23:33N 43°33' E 009°12'1111.0
2014-Oct-16 22:33N 43°34' E 008°57'1110.7
2014-Oct-16 21:33N 43°35' E 008°43'1110.4
2014-Oct-16 20:33N 43°36' E 008°28'1110.2
2014-Oct-16 19:30N 43°37' E 008°13'1111.6
2014-Oct-16 18:33N 43°38' E 007°58'2914.4
2014-Oct-16 16:33N 43°41' E 007°19'0 0.1
2014-Oct-16 15:23N 43°41' E 007°19'0 0.0
2014-Oct-16 14:29N 43°41' E 007°19'0 0.0
2014-Oct-16 13:28N 43°41' E 007°19'0 0.1
2014-Oct-16 12:28N 43°41' E 007°19'0 0.0
2014-Oct-16 11:28N 43°41' E 007°19'0 0.0
2014-Oct-16 10:33N 43°41' E 007°19'0 0.0
2014-Oct-16 09:33N 43°41' E 007°19'0 0.0
2014-Oct-16 08:32N 43°41' E 007°19'0 0.0
2014-Oct-16 07:32N 43°41' E 007°19'0 0.1
2014-Oct-16 06:31N 43°41' E 007°19'0 0.0
2014-Oct-16 05:31N 43°41' E 007°19'3 2.6
2014-Oct-16 04:33N 43°39' E 007°18'10 9.8
2014-Oct-16 03:33N 43°30' E 007°12'10 9.9
2014-Oct-16 02:33N 43°22' E 007°04'10 9.8
2014-Oct-16 01:33N 43°14' E 006°56'10 9.8
2014-Oct-16 00:33N 43°06' E 006°49'9 9.4
2014-Oct-15 23:33N 42°59' E 006°40'  

Dump ship's entire track history